sat.trackr.live / text

‹ back to catalog

STARLINK-35311

NORAD 66032 · 2025-232AD

PAYLOAD ACTIVE UNKNOWN

§ Identity

Operator
Country
US
Launch date
2025-10-16
Launch site
AFETR
Launch vehicle
Mass (kg)
RCS (m²)

Purposes: comms

External: N2YO · Heavens-Above · Gunter

§ Orbital elements

Epoch: 2026-09-20T05:52:44.493024Z

Period
93.85 min
Inclination
53.1591°
Eccentricity
0.0001302
Mean motion
15.34394627 rev/d
Perigee alt
461.8 km
Apogee alt
463.6 km
Semi-major
6,840.9 km
B*
1.9525e-4
RAAN
276.6024°
Arg perigee
77.4491°
Mean anomaly
282.6658°
Rev number
5,327

§ Raw data

STARLINK-353111 66032U 25232AD  26263.24495941  .00006225  00000+0  19525-3 0  99972 66032  53.1591 276.6024 0001302  77.4491 282.6658 15.34394627 53276

JSON: /api/v1/satellites/66032 · /tle

For live sub-satellite position, see the globe view (requires WebGL).

§ Visibility from observer

Set your observer location to see the next 7 days of passes ≥ 10°. The values pass through the URL so the page stays shareable.

No JS? Fill the form by hand. The geolocation button needs JavaScript.